Find Starlink 5632

NORAD ID: 55400 Int'l Des: 2023-014 Owner: SPXS Country: US Constellation: starlink operational
LEOCIRCULAR

当前视图

正在加载3D地球...

About Starlink 5632

Starlink 5632 (NORAD 55400) is a starlink constellation satellite (v1.5) launched Jan 31, 2023 by SPXS of US. It operates in LEO, CIRCULAR orbit with a mass of 305.00 kg.

关于 Starlink 5632

正在加载描述...

即将过境

Passes for default location (London). Set your location on the main map for personalized predictions.

高度历史

Loading altitude history...

两行轨道根数

1 55400U 23014K 26166.41660791 .00000543 00000-0 53290-4 0 9994
2 55400 69.9989 178.0572 0004000 270.6102 89.4599 14.98329319186691
Epoch: Jun 15, 2026 • Age: 7 hours

当前状态

高度 581.6 km
速度 7.57 km/s
星下点 49.75°N, 48.98°E
发射日期 Jan 31, 2023
运行时间 3.3 years
类型 internet

技术详情

分类 Payload
质量 305.00 kg
干质量 290.00 kg
总质量 305.00 kg
长度 0.20 m
直径 2.80 m
跨度 9.00 m
形状 Box + pan
制造商 SPXS
平台类型 Starlink
阶段状态 In Orbit
所有者/国家 SPXS/US

Most Searched